Location: Unspecified
(0.0000°N, 0.0000°E)
Time: 16:26:36
(UTC+00:00)

SR - All Passes

Search period start: 26 January 2015 00:00
Search period end: 05 February 2015 00:00
Orbit: 582 x 881 km, 66.7° (Epoch: 25 January)

Date Brightness Start Highest point End Pass type
(mag) Time Alt. Az. Time Alt. Az. Time Alt. Az.
26 Jan - 01:34:40 10° NW 01:38:46 50° WSW 01:43:00 10° S night (unlit)
26 Jan - 12:19:07 10° SSE 12:23:55 26° ESE 12:28:46 10° NE daylight
26 Jan - 14:01:12 10° SW 14:06:02 25° WNW 14:10:33 10° NNW daylight
27 Jan - 00:46:08 10° N 00:50:13 51° ENE 00:54:27 10° SSE night (unlit)
27 Jan - 11:33:54 10° SE 11:35:04 11° ESE 11:36:46 10° E daylight
27 Jan - 13:11:34 10° SSW 13:17:24 58° WNW 13:23:01 10° N daylight
27 Jan - 23:58:53 10° NNE 00:01:37 17° ENE 00:04:35 10° ESE night (unlit)
28 Jan - 01:40:41 10° WNW 01:43:36 17° WSW 01:46:26 10° SSW night (unlit)
28 Jan - 12:22:59 10° S 12:28:49 61° ESE 12:34:29 10° NNE daylight
29 Jan - 00:50:49 10° NW 00:54:55 50° WSW 00:59:10 10° S night (unlit)
29 Jan - 11:35:20 10° SSE 11:40:07 26° ESE 11:44:58 10° NE daylight
29 Jan - 13:17:25 10° SW 13:22:14 25° WNW 13:26:44 10° NNW daylight
30 Jan - 00:02:17 10° N 00:06:22 51° ENE 00:10:38 10° SSE night (unlit)
30 Jan - 10:50:08 10° SE 10:51:16 11° ESE 10:52:56 10° E daylight
30 Jan - 12:27:46 10° SSW 12:33:36 58° WNW 12:39:12 10° N daylight
30 Jan - 23:15:02 10° NNE 23:17:47 17° ENE 23:20:45 10° ESE night (unlit)
31 Jan - 00:56:49 10° WNW 00:59:46 17° WSW 01:02:37 10° SSW night (unlit)
31 Jan - 11:39:11 10° S 11:45:01 61° ESE 11:50:40 10° NNE daylight
01 Feb - 00:06:58 10° NW 00:11:05 50° WSW 00:15:22 10° S night (unlit)
01 Feb - 10:51:33 10° SSE 10:56:19 26° ESE 11:01:08 10° NE daylight
01 Feb - 12:33:36 10° SW 12:38:26 25° WNW 12:42:55 10° NNW daylight
01 Feb - 23:18:26 10° N 23:22:31 51° ENE 23:26:48 10° SSE night (unlit)
02 Feb - 10:06:22 10° SE 10:07:27 11° ESE 10:09:04 10° E daylight
02 Feb - 11:43:59 10° SSW 11:49:48 58° WNW 11:55:22 10° N daylight
02 Feb - 22:31:11 10° NNE 22:33:56 17° ENE 22:36:55 10° ESE night (unlit)
03 Feb - 00:12:56 10° WNW 00:15:55 18° WSW 00:18:49 10° SSW night (unlit)
03 Feb - 10:55:23 10° S 11:01:12 61° ESE 11:06:50 10° NNE daylight
03 Feb - 23:23:06 10° NW 23:27:13 50° WSW 23:31:31 10° S night (unlit)
04 Feb - 10:07:45 10° SSE 10:12:30 26° ESE 10:17:18 10° NE daylight
04 Feb - 11:49:48 10° SW 11:54:37 25° WNW 11:59:05 10° NNW daylight
04 Feb - 22:34:34 10° N 22:38:40 51° ENE 22:42:58 10° SSE night (unlit)
